Location: Çayiçi
(36.4667°N, 30.2333°E)
Time: 02:40:10
(UTC+00:00)

SL-24 R/B - RUBIN 2 - Pass Details

Date: 09 February 2023
Orbit: 591 x 1003 km, 64.6° (Epoch: 01 April)

Event Time Altitude Azimuth Distance (km) Brightness Sun altitude
Rises 16:27:33 0° 190° (S) 2,819 7.2 -11.4°
Reaches altitude 10° 16:29:53 10° 181° (S) 1,911 6.2 -11.9°
Maximum altitude 16:33:49 37° 114° (ESE) 929 4.0 -12.7°
Enters shadow 16:36:37 17° 55° (NE) 1,526 5.0 -13.2°
